Content
SEND FEEDBACK

Daily
Averages
Monthly
Summary
Brazil

FOZ DO IGUACU, PARAÍBA


Home > South America > Brazil > Paraíba
Elevation: 741 feet     Latitude: 25 30S     Longitude: 054 36W

WEATHER
 
SELECT A DAY
Number of Records: 186,511;   Date Range: 6/30/96 - 9/29/14
 
SHARE

PRINT THIS DATA

[ ← Previous Day ]
WEATHER ALMANAC - FEBRUARY 13, 2013
[ Next Day → ]
[ °C ]   °F
Weather ElementAverageHighLow
Temperature68.3 °F80.6 °F (3:00 pm) (12:00 pm)
Dewpoint71.1 °F73.4 °F (10:25 am)69 °F (9:00 pm)
Humidity87.2 %94 % (10:25 am)74 % (3:00 pm)
Wind Speed8 mph15 mph (11:00 pm)
Weather ElementAverage
Visibility6.1 mi
Wind DirectionE (89.1 °)

Weather ElementTotal
Precipitation---
Heating Degree Days24.7 (Base 65)
Averaged from 34 records on February 13, 2013
WEATHER CONDITIONS BREAKOUT
WIND DIRECTION BREAKOUT
WEATHER BY HOUR - FEBRUARY 13, 2013
[ °C ]   °F
Local TimeTemperatureDewpointHumidityBarometerVisibilityWind DirectionWind SpeedGust SpeedPrecipitationEventsConditions
1:00 AM75.2 °F69.8 °F83 %29.83 inNorth (350°)8.1 mphClear
2:00 AM73.4 °F69.8 °F88 %29.83 inCalmClear
3:00 AM74.0 °F70.0 °F83 %29.84 in12.0 miNorth (10°)6.9 mph
3:00 AM73.4 °F69.8 °F88 %29.86 inNorth (10°)6.9 mphClear
4:00 AM73.4 °F69.8 °F88 %29.80 inEast (80°)4.6 mphClear
5:00 AM73.4 °F69.8 °F88 %29.80 inNE (40°)4.6 mphClear
6:00 AM73.4 °F69.8 °F88 %29.83 in6.2 miEast (100°)6.9 mphScattered Clouds
7:00 AM73.4 °F69.8 °F88 %29.83 in6.2 miEast (90°)6.9 mphScattered Clouds
8:00 AM75.2 °F69.8 °F83 %29.86 in6.2 miEast (90°)6.9 mphMostly Cloudy
9:00 AM77.0 °F71.0 °F77 %29.85 in12.0 miNNE (20°)10.4 mphMostly Cloudy
9:00 AM77.0 °F71.6 °F83 %29.86 in6.2 miNNE (20°)10.4 mphMostly Cloudy
9:25 AM77.0 °F71.6 °F83 %29.89 in1.9 miNNE (20°)10.4 mphRainLight Rain
9:40 AM75.2 °F71.6 °F89 %29.86 in3.1 miENE (60°)8.1 mphRainRain
10:00 AM75.2 °F71.6 °F89 %29.89 in1.3 miNorth (350°)5.8 mphRainRain
10:25 AM75.2 °F73.4 °F94 %29.86 in4.3 miNE (50°)5.8 mphRainLight Rain
11:00 AM75.2 °F71.6 °F89 %29.89 in4.3 miNNW (330°)12.7 mphRainLight Rain
11:35 AM73.4 °F71.6 °F94 %29.89 in5.0 miWest (280°)5.8 mphRainLight Rain
12:00 PM0.0 °F71.6 °F29.89 in5.6 miCalmRainLight Rain
12:20 PM0.0 °F71.6 °F29.89 in5.0 miSouth (180°)2.3 mphRainLight Rain
1:00 PM75.2 °F71.6 °F89 %6.2 miSouth (180°)4.6 mphRainLight Rain
2:00 PM78.8 °F73.4 °F83 %29.83 in6.2 miSE (130°)6.9 mphOvercast
3:00 PM80.0 °F73.0 °F74 %29.81 in12.0 miEast (80°)8.1 mphMostly Cloudy
3:00 PM80.6 °F73.4 °F79 %29.83 in6.2 miEast (80°)8.1 mphMostly Cloudy
4:00 PM77.0 °F73.4 °F89 %3.7 miNorth (10°)11.5 mphRainLight Rain
4:10 PM75.2 °F71.6 °F89 %3.7 miNNE (20°)11.5 mphRainLight Rain
5:00 PM71.6 °F69.8 °F94 %4.3 miNNE (30°)6.9 mphRain-ThunderstormLight Thunderstorms and Rain
5:16 PM73.4 °F71.6 °F94 %6.2 miEast (80°)8.1 mphRain-ThunderstormLight Thunderstorms and Rain
6:00 PM0.0 °F71.6 °F29.83 in6.2 miEast (80°)11.5 mphRainLight Rain
7:00 PM73.4 °F71.6 °F94 %29.83 in6.2 miEast (90°)11.5 mphMostly Cloudy
8:00 PM73.4 °F69.8 °F88 %29.83 in6.2 miNE (50°)11.5 mphMostly Cloudy
9:00 PM73.0 °F69.0 °F85 %29.82 in12.0 miNE (50°)11.5 mphScattered Clouds
9:00 PM73.4 °F69.8 °F88 %29.83 in6.2 miNE (50°)11.5 mphMostly Cloudy
10:00 PM73.4 °F69.8 °F88 %29.86 in6.2 miNorth (10°)11.5 mphMostly Cloudy
11:00 PM73.4 °F71.6 °F94 %29.89 in6.2 miNorth (10°)15.0 mphMostly Cloudy
Hourly data recorded from SBFI, located miles away from Foz do Iguacu, Paraíba







STORIES FROM OUR PARTNERS